Date String (YYYY-MM-DD hh:mm:ss) UTC,Instrument flags,absolute air pressure of the measurement (hPa),sample flow rate (lpm),inlet stack bypass flow (lpm),air temperature of the measurement (°C),ambient temperature measured by the external sensor (°C),aerosol sample conditioner tube jacket temperature (°C),OPC LED temperature (°C),internal box temperature (°C),relative humidity of the measurement (%),span deviation,mass concentration of particles derived from Lorenz-Mie calculation of OPC scattering (μg/m³),mass concentration of particles derived from Lorenz-Mie calculation of OPC scattering (μg/m³),mass concentration of particles derived from Lorenz-Mie calculation of OPC scattering (μg/m³)
DateTimeUTC,F1_M11,P_M11,Q1_M11,Q2_M11,T1_M11,T2_M11,T3_M11,T4_M11,T5_M11,U1_M11,ZSPAN_M11,X0_M11,X2_M11,X1_M11
2024-02-01 05:00:00,SystemResetWarning,0826.8,5.00,000.00,025.8,025.1,000.0,034.2,027.6,08.9,0000.0,0013.88,0004.05,0003.36
2024-02-01 05:01:00,SystemResetWarning,0826.8,4.99,000.00,025.8,025.1,000.0,034.2,027.6,08.9,0000.0,0014.76,0004.03,0003.33
2024-02-01 05:02:00,SystemResetWarning,0826.8,5.00,000.00,025.8,025.1,000.0,034.2,027.6,08.9,0000.0,0015.06,0004.10,0003.37
2024-02-01 05:03:00,SystemResetWarning,0826.8,5.00,000.00,025.8,025.1,000.0,034.2,027.6,08.9,0000.0,0015.03,0004.16,0003.43
2024-02-01 05:04:00,SystemResetWarning,0826.8,5.00,000.00,025.8,025.1,000.0,034.2,027.6,08.9,0000.0,0015.18,0004.27,0003.48
2024-02-01 05:05:00,SystemResetWarning,0826.8,5.00,000.00,025.8,025.1,000.0,034.2,027.6,08.9,0000.0,0014.56,0004.30,0003.52
2024-02-01 05:06:00,SystemResetWarning,0826.8,5.00,000.00,025.8,025.1,000.0,034.2,027.6,08.9,0000.0,0014.77,0004.32,0003.55
2024-02-01 05:07:00,SystemResetWarning,0826.8,5.00,000.00,025.8,025.1,000.0,034.2,027.6,08.9,0000.0,0015.44,0004.33,0003.60
2024-02-01 05:08:00,SystemResetWarning,0826.8,5.00,000.00,025.8,025.1,000.0,034.2,027.6,09.0,0000.0,0015.58,0004.43,0003.70
2024-02-01 05:09:00,SystemResetWarning,0826.7,5.01,000.00,025.8,025.1,000.0,034.2,027.6,09.3,0000.0,0015.43,0004.55,0003.77
2024-02-01 05:10:00,SystemResetWarning,0826.8,5.00,000.00,025.8,025.1,000.0,034.2,027.6,09.1,0000.0,0016.39,0004.64,0003.78
2024-02-01 05:11:00,SystemResetWarning,0826.8,5.00,000.00,025.8,025.1,000.0,034.2,027.6,09.0,0000.0,0016.67,0004.70,0003.81
2024-02-01 05:12:00,SystemResetWarning,0826.8,4.99,000.00,025.8,025.1,000.0,034.2,027.6,09.2,0000.0,0016.21,0004.72,0003.84
2024-02-01 05:13:00,SystemResetWarning,0826.8,5.00,000.00,025.8,025.1,000.0,034.2,027.6,09.1,0000.0,0017.03,0004.65,0003.78
2024-02-01 05:14:00,SystemResetWarning,0826.8,5.00,000.00,025.8,025.1,000.0,034.2,027.5,09.1,0000.0,0016.93,0004.57,0003.73
2024-02-01 05:15:00,SystemResetWarning,0826.8,5.00,000.00,025.8,025.1,000.0,034.2,027.6,09.0,0000.0,0016.66,0004.50,0003.69
2024-02-01 05:16:00,SystemResetWarning,0826.8,5.00,000.00,025.8,025.1,000.0,034.2,027.6,08.9,0000.0,0017.24,0004.49,0003.68
2024-02-01 05:17:00,SystemResetWarning,0826.8,5.00,000.00,025.8,025.1,000.0,034.2,027.5,08.9,0000.0,0017.31,0004.46,0003.67
2024-02-01 05:18:00,SystemResetWarning,0826.8,5.00,000.00,025.8,025.1,000.0,034.2,027.5,09.0,0000.0,0016.31,0004.43,0003.66
2024-02-01 05:19:00,SystemResetWarning,0826.8,5.00,000.00,025.8,025.1,000.0,034.2,027.5,09.0,0000.0,0016.15,0004.46,0003.63
2024-02-01 05:20:00,SystemResetWarning,0826.8,5.00,000.00,025.8,025.1,000.0,034.2,027.6,08.9,0000.0,0016.91,0004.41,0003.61
2024-02-01 05:21:00,SystemResetWarning,0826.8,5.00,000.00,025.8,025.1,000.0,034.2,027.6,08.9,0000.0,0016.19,0004.39,0003.65
2024-02-01 05:22:00,SystemResetWarning,0826.8,5.00,000.00,025.8,025.1,000.0,034.2,027.6,08.9,0000.0,0016.54,0004.36,0003.64
2024-02-01 05:23:00,SystemResetWarning,0826.8,5.00,000.00,025.8,025.1,000.0,034.2,027.6,08.8,0000.0,0016.74,0004.30,0003.60
2024-02-01 05:24:00,SystemResetWarning,0826.8,5.00,000.00,025.8,025.1,000.0,034.2,027.6,08.8,0000.0,0016.40,0004.29,0003.59
2024-02-01 05:25:00,SystemResetWarning,0826.8,5.00,000.00,025.8,025.1,000.0,034.2,027.6,08.8,0000.0,0016.00,0004.32,0003.58
2024-02-01 05:26:00,SystemResetWarning,0826.8,5.00,000.00,025.8,025.1,000.0,034.2,027.6,08.8,0000.0,0016.41,0004.32,0003.55
2024-02-01 05:27:00,SystemResetWarning,0826.8,5.00,000.00,025.8,025.1,000.0,034.2,027.6,08.8,0000.0,0016.56,0004.24,0003.51
2024-02-01 05:28:00,SystemResetWarning,0826.8,5.00,000.00,025.8,025.1,000.0,034.2,027.6,08.8,0000.0,0016.15,0004.18,0003.45
2024-02-01 05:29:00,SystemResetWarning,0826.8,5.00,000.00,025.8,025.1,000.0,034.2,027.6,08.7,0000.0,0016.71,0004.11,0003.37
2024-02-01 05:30:00,SystemResetWarning,0826.8,5.00,000.00,025.8,025.1,000.0,034.2,027.6,08.7,0000.0,0015.88,0003.97,0003.28
2024-02-01 05:31:00,SystemResetWarning,0826.8,5.00,000.00,025.8,025.1,000.0,034.2,027.6,08.8,0000.0,0014.62,0003.84,0003.20
2024-02-01 05:32:00,SystemResetWarning,0826.8,5.00,000.00,025.8,025.1,000.0,034.2,027.6,08.8,0000.0,0014.22,0003.77,0003.14
2024-02-01 05:33:00,SystemResetWarning,0826.8,5.00,000.00,025.8,025.1,000.0,034.2,027.6,08.8,0000.0,0013.54,0003.72,0003.10
2024-02-01 05:34:00,SystemResetWarning,0826.8,5.00,000.00,025.8,025.1,000.0,034.2,027.6,08.8,0000.0,0013.87,0003.73,0003.10
2024-02-01 05:35:00,SystemResetWarning,0826.8,5.00,000.00,025.8,025.1,000.0,034.2,027.6,08.8,0000.0,0013.38,0003.66,0003.08
2024-02-01 05:36:00,SystemResetWarning,0826.8,5.00,000.00,025.8,025.1,000.0,034.2,027.5,08.7,0000.0,0013.49,0003.59,0003.05
2024-02-01 05:37:00,SystemResetWarning,0826.8,5.00,000.00,025.8,025.1,000.0,034.2,027.5,08.8,0000.0,0012.94,0003.50,0003.01
2024-02-01 05:38:00,SystemResetWarning,0826.8,5.00,000.00,025.8,025.1,000.0,034.2,027.5,08.7,0000.0,0012.25,0003.50,0002.99
2024-02-01 05:39:00,SystemResetWarning,0826.8,5.00,000.00,025.8,025.0,000.0,034.2,027.5,08.7,0000.0,0012.18,0003.49,0002.99
2024-02-01 05:40:00,SystemResetWarning,0826.8,5.00,000.00,025.8,025.0,000.0,034.2,027.5,08.8,0000.0,0011.23,0003.52,0003.00
2024-02-01 05:41:00,SystemResetWarning,0826.8,5.00,000.00,025.8,025.0,000.0,034.2,027.5,08.8,0000.0,0012.21,0003.64,0003.09
2024-02-01 05:42:00,SystemResetWarning,0826.8,5.00,000.00,025.8,025.0,000.0,034.2,027.5,08.8,0000.0,0013.58,0003.67,0003.11
2024-02-01 05:43:00,SystemResetWarning,0826.8,5.01,000.00,025.8,025.0,000.0,034.2,027.5,08.7,0000.0,0014.35,0003.69,0003.11
2024-02-01 05:44:00,SystemResetWarning,0826.8,5.00,000.00,025.8,025.0,000.0,034.2,027.5,08.7,0000.0,0013.90,0003.65,0003.06
2024-02-01 05:45:00,SystemResetWarning,0826.8,5.01,000.00,025.8,025.0,000.0,034.2,027.5,08.7,0000.0,0012.55,0003.55,0002.95
2024-02-01 05:46:00,SystemResetWarning,0826.8,5.01,000.00,025.8,025.0,000.0,034.2,027.5,08.7,0000.0,0012.87,0003.52,0002.87
2024-02-01 05:47:00,SystemResetWarning,0826.8,5.00,000.00,025.8,025.0,000.0,034.2,027.5,08.7,0000.0,0012.61,0003.52,0002.81
2024-02-01 05:48:00,SystemResetWarning,0826.8,4.99,000.00,025.8,025.0,000.0,034.2,027.5,08.7,0000.0,0012.52,0003.53,0002.78
2024-02-01 05:49:00,SystemResetWarning,0826.8,5.00,000.00,025.8,025.0,000.0,034.2,027.5,08.7,0000.0,0012.23,0003.50,0002.72
2024-02-01 05:50:00,SystemResetWarning,0826.8,5.00,000.00,025.8,025.0,000.0,034.2,027.5,08.7,0000.0,0011.40,0003.44,0002.65
2024-02-01 05:51:00,SystemResetWarning,0826.8,5.00,000.00,025.8,025.0,000.0,034.2,027.5,08.7,0000.0,0011.05,0003.41,0002.63
2024-02-01 05:52:00,SystemResetWarning,0826.8,5.01,000.00,025.8,025.0,000.0,034.2,027.5,08.7,0000.0,0010.76,0003.34,0002.59
2024-02-01 05:53:00,SystemResetWarning,0826.8,5.00,000.00,025.8,025.0,000.0,034.2,027.5,08.7,0000.0,0010.81,0003.35,0002.58
2024-02-01 05:54:00,SystemResetWarning,0826.8,5.01,000.00,025.8,025.0,000.0,034.2,027.5,08.7,0000.0,0010.36,0003.31,0002.57
2024-02-01 05:55:00,SystemResetWarning,0826.8,5.00,000.00,025.8,025.0,000.0,034.1,027.5,08.7,0000.0,0011.07,0003.32,0002.61
2024-02-01 05:56:00,SystemResetWarning,0826.8,5.01,000.00,025.7,025.0,000.0,034.1,027.5,08.7,0000.0,0011.92,0003.36,0002.65
2024-02-01 05:57:00,SystemResetWarning,0826.8,5.00,000.00,025.8,025.0,000.0,034.1,027.5,08.7,0000.0,0011.46,0003.40,0002.71
2024-02-01 05:58:00,SystemResetWarning,0826.8,5.00,000.00,025.8,025.0,000.0,034.1,027.5,08.7,0000.0,0011.15,0003.41,0002.75
2024-02-01 05:59:00,SystemResetWarning,0826.8,5.00,000.00,025.8,025.0,000.0,034.1,027.5,08.7,0000.0,0011.08,0003.42,0002.77
